STARLINK-36101

Last updated on Mon Dec 15 2025 00:02:12 GMT+0000 (Coordinated Universal Time)

1 66867U 25281V 25348.25003472 -.01288716 00000+0 -53600-2 0 9996 2 66867 43.0009 112.9077 0001337 268.0973 305.0317 15.87340757 1486
UTC large
Height (km)
Speed (km/s)
/
Latitude / Longitude
Inclination (degrees)
Orbital Period (minutes)
Azimuth
Elevation
Range (km)
Doppler Factor

Next 0 passes for location: London (51.5072 / 0.1276)

Sorry there are no passes over London.